| time (UTC) | temp F | wind direction | speed knots | gust knots | rain 1hr in | rain 24hr in | rain mn in | humidity % | barometer mb |
| 20260509034512 | 72 | 182 | 0.9 | 4.3 | 0.00 | 0.00 | 0.00 | 88 | 1010.9 |
| 20260509033012 | 72 | 134 | 1.7 | 3.5 | 0.00 | 0.00 | 0.00 | 88 | 1010.9 |
| 20260509031520 | 72 | 144 | 0.9 | 2.6 | 0.00 | 0.00 | 0.00 | 88 | 1010.7 |
| 20260509030014 | 72 | 132 | 3.5 | 5.2 | 0.00 | 0.00 | 0.00 | 88 | 1010.3 |
| 20260509024511 | 72 | 148 | 2.6 | 5.2 | 0.00 | 0.00 | 0.00 | 87 | 1010.3 |
| 20260509023016 | 72 | 157 | 1.7 | 4.3 | 0.00 | 0.00 | 0.00 | 87 | 1010.3 |
| 20260509021509 | 72 | 160 | 0.9 | 3.5 | 0.00 | 0.00 | 0.00 | 87 | 1010.2 |
| 20260509020011 | 72 | 136 | 1.7 | 5.2 | 0.00 | 0.00 | 0.00 | 86 | 1009.7 |
| 20260509014507 | 73 | 141 | 1.7 | 6.1 | 0.00 | 0.00 | 0.00 | 85 | 1009.4 |
| 20260509013007 | 74 | 128 | 3.5 | 6.1 | 0.00 | 0.00 | 0.00 | 84 | 1009.4 |
| 20260509011606 | 74 | 137 | 0.9 | 3.5 | 0.00 | 0.00 | 0.00 | 82 | 1009.5 |
| 20260509010005 | 75 | 147 | 2.6 | 7.0 | 0.00 | 0.00 | 0.00 | 81 | 1009.5 |
| 20260509004512 | 75 | 138 | 2.6 | 6.1 | 0.00 | 0.00 | 0.00 | 80 | 1009.3 |
| 20260509003006 | 75 | 165 | 1.7 | 6.1 | 0.00 | 0.00 | 0.00 | 79 | 1009.3 |
| 20260509001507 | 76 | 146 | 1.7 | 4.3 | 0.00 | 0.00 | 0.00 | 78 | 1009.4 |
| 20260509000002 | 76 | 191 | 2.6 | 7.8 | 0.00 | 0.00 | 0.00 | 78 | 1009.4 |
| 20260508234501 | 76 | 139 | 3.5 | 7.0 | 0.00 | 0.00 | 0.00 | 77 | 1009.4 |
| 20260508233104 | 76 | 169 | 3.5 | 8.7 | 0.00 | 0.00 | 0.00 | 76 | 1009.4 |
| 20260508231559 | 77 | 141 | 2.6 | 9.6 | 0.00 | 0.00 | 0.00 | 75 | 1009.4 |
| 20260508230106 | 77 | 142 | 1.7 | 6.1 | 0.00 | 0.00 | 0.00 | 76 | 1009.5 |
| 20260508224557 | 77 | 159 | 5.2 | 9.6 | 0.00 | 0.00 | 0.00 | 75 | 1009.6 |
| 20260508223055 | 77 | 136 | 4.3 | 7.8 | 0.00 | 0.00 | 0.00 | 74 | 1009.6 |
| 20260508221553 | 77 | 169 | 4.3 | 7.8 | 0.00 | 0.00 | 0.00 | 74 | 1009.6 |
| 20260508220053 | 78 | 131 | 2.6 | 7.8 | 0.00 | 0.00 | 0.00 | 73 | 1009.7 |
| 20260508214551 | 79 | 206 | 3.5 | 8.7 | 0.00 | 0.00 | 0.00 | 72 | 1009.8 |
| 20260508213050 | 78 | 184 | 4.3 | 7.8 | 0.00 | 0.00 | 0.00 | 72 | 1009.9 |
| 20260508211546 | 79 | 181 | 2.6 | 7.8 | 0.00 | 0.00 | 0.00 | 72 | 1010.1 |
| 20260508210045 | 78 | 143 | 5.2 | 9.6 | 0.00 | 0.00 | 0.00 | 73 | 1010.4 |
| 20260508204544 | 77 | 130 | 4.3 | 9.6 | 0.00 | 0.00 | 0.00 | 74 | 1010.6 |
| 20260508203042 | 77 | 133 | 2.6 | 7.0 | 0.00 | 0.00 | 0.00 | 74 | 1010.7 |
| 20260508201543 | 77 | 120 | 3.5 | 7.8 | 0.00 | 0.00 | 0.00 | 72 | 1010.9 |
| 20260508200041 | 78 | 129 | 2.6 | 7.8 | 0.00 | 0.00 | 0.00 | 71 | 1011.0 |
| 20260508194610 | 78 | 117 | 3.5 | 9.6 | 0.00 | 0.00 | 0.00 | 72 | 1011.0 |
| 20260508193035 | 77 | 131 | 2.6 | 8.7 | 0.00 | 0.00 | 0.00 | 71 | 1011.4 |
| 20260508191533 | 76 | 127 | 3.5 | 8.7 | 0.00 | 0.00 | 0.00 | 73 | 1011.6 |
| 20260508190030 | 76 | 115 | 3.5 | 7.0 | 0.00 | 0.00 | 0.00 | 74 | 1011.7 |
| 20260508184533 | 76 | 188 | 2.6 | 7.0 | 0.00 | 0.00 | 0.00 | 72 | 1011.9 |
| 20260508183027 | 76 | 134 | 3.5 | 7.8 | 0.00 | 0.00 | 0.00 | 71 | 1012.1 |
| 20260508181535 | 76 | 121 | 3.5 | 7.0 | 0.00 | 0.00 | 0.00 | 72 | 1012.4 |
| 20260508180025 | 75 | 130 | 3.5 | 8.7 | 0.00 | 0.00 | 0.00 | 73 | 1012.6 |
| 20260508174522 | 76 | 92 | 3.5 | 7.8 | 0.00 | 0.00 | 0.00 | 71 | 1012.7 |
| 20260508173034 | 77 | 190 | 1.7 | 4.3 | 0.00 | 0.00 | 0.00 | 71 | 1012.8 |
| 20260508171525 | 77 | 123 | 0.0 | 1.7 | 0.00 | 0.00 | 0.00 | 73 | 1013.0 |
| 20260508170017 | 76 | 264 | 0.9 | 3.5 | 0.00 | 0.00 | 0.00 | 73 | 1013.1 |
| 20260508164518 | 76 | 41 | 0.9 | 2.6 | 0.00 | 0.00 | 0.00 | 72 | 1013.2 |
| 20260508163019 | 74 | 203 | 0.9 | 4.3 | 0.00 | 0.00 | 0.00 | 73 | 1013.4 |
| 20260508161507 | 72 | 145 | 0.0 | 3.5 | 0.00 | 0.00 | 0.00 | 75 | 1013.7 |
| 20260508160004 | 70 | 168 | 0.9 | 2.6 | 0.00 | 0.00 | 0.00 | 77 | 1013.9 |
| 20260508154501 | 69 | 135 | 0.0 | 2.6 | 0.00 | 0.00 | 0.00 | 76 | 1014.1 |
| 20260508153059 | 69 | 169 | 0.0 | 2.6 | 0.00 | 0.00 | 0.00 | 75 | 1014.4 |
| 20260508151605 | 66 | 144 | 0.9 | 2.6 | 0.00 | 0.00 | 0.00 | 77 | 1014.6 |
| 20260508150051 | 64 | 200 | 1.7 | 4.3 | 0.00 | 0.00 | 0.00 | 78 | 1014.8 |
| 20260508144549 | 64 | 172 | 0.0 | 3.5 | 0.00 | 0.00 | 0.00 | 80 | 1014.7 |
| 20260508143048 | 62 | 107 | 1.7 | 3.5 | 0.00 | 0.00 | 0.00 | 81 | 1014.6 |
| 20260508141542 | 62 | 84 | 1.7 | 5.2 | 0.00 | 0.00 | 0.00 | 82 | 1014.7 |
| 20260508140041 | 61 | 77 | 2.6 | 6.1 | 0.00 | 0.00 | 0.00 | 82 | 1014.8 |
| 20260508134540 | 61 | 73 | 1.7 | 5.2 | 0.00 | 0.00 | 0.00 | 83 | 1014.7 |
| 20260508133054 | 61 | 72 | 3.5 | 7.8 | 0.00 | 0.00 | 0.00 | 82 | 1014.7 |
| 20260508131539 | 60 | 41 | 2.6 | 4.3 | 0.00 | 0.00 | 0.00 | 83 | 1014.8 |
| 20260508130034 | 60 | 39 | 1.7 | 4.3 | 0.00 | 0.00 | 0.00 | 83 | 1014.8 |
| 20260508124533 | 60 | 59 | 2.6 | 5.2 | 0.00 | 0.00 | 0.00 | 84 | 1015.0 |
| 20260508123048 | 59 | 359 | 2.6 | 6.1 | 0.00 | 0.00 | 0.00 | 84 | 1015.1 |
| 20260508121531 | 59 | 1 | 3.5 | 6.1 | 0.00 | 0.00 | 0.00 | 85 | 1014.7 |
| 20260508120030 | 59 | 38 | 2.6 | 5.2 | 0.00 | 0.00 | 0.00 | 85 | 1015.1 |
| 20260508114529 | 60 | 22 | 1.7 | 4.3 | 0.00 | 0.00 | 0.00 | 84 | 1015.3 |
| 20260508113029 | 60 | 18 | 0.9 | 2.6 | 0.00 | 0.00 | 0.00 | 81 | 1015.4 |
| 20260508111527 | 60 | 25 | 0.9 | 4.3 | 0.00 | 0.00 | 0.00 | 81 | 1015.5 |
| 20260508110027 | 60 | 17 | 1.7 | 5.2 | 0.00 | 0.00 | 0.00 | 81 | 1015.4 |
| 20260508104526 | 60 | 306 | 1.7 | 7.0 | 0.00 | 0.00 | 0.00 | 81 | 1015.2 |
| 20260508103025 | 60 | 22 | 4.3 | 8.7 | 0.00 | 0.00 | 0.00 | 81 | 1015.2 |
| 20260508101524 | 60 | 20 | 3.5 | 7.0 | 0.00 | 0.00 | 0.00 | 82 | 1015.1 |
| 20260508100025 | 60 | 347 | 2.6 | 5.2 | 0.00 | 0.00 | 0.00 | 82 | 1014.9 |
| 20260508094523 | 59 | 27 | 1.7 | 5.2 | 0.00 | 0.00 | 0.00 | 83 | 1015.2 |
| 20260508093025 | 59 | 356 | 1.7 | 5.2 | 0.00 | 0.00 | 0.00 | 83 | 1015.3 |
| 20260508091526 | 60 | 356 | 0.9 | 2.6 | 0.00 | 0.00 | 0.00 | 83 | 1015.4 |
| 20260508090022 | 60 | 314 | 0.9 | 1.7 | 0.00 | 0.00 | 0.00 | 82 | 1015.2 |
| 20260508084517 | 60 | 38 | 0.9 | 2.6 | 0.00 | 0.00 | 0.00 | 79 | 1015.0 |
| 20260508083117 | 60 | 28 | 0.0 | 2.6 | 0.00 | 0.00 | 0.00 | 79 | 1015.2 |
| 20260508081521 | 60 | 45 | 0.0 | 1.7 | 0.00 | 0.00 | 0.00 | 79 | 1015.4 |
| 20260508080016 | 60 | 63 | 0.0 | 0.9 | 0.00 | 0.00 | 0.00 | 78 | 1015.4 |
| 20260508074514 | 60 | 63 | 0.0 | 2.6 | 0.00 | 0.00 | 0.00 | 79 | 1015.3 |
| 20260508073015 | 60 | 63 | 1.7 | 4.3 | 0.00 | 0.00 | 0.00 | 78 | 1015.4 |
| 20260508071524 | 60 | 22 | 2.6 | 7.0 | 0.00 | 0.00 | 0.00 | 78 | 1015.4 |
| 20260508070012 | 60 | 56 | 2.6 | 7.8 | 0.00 | 0.00 | 0.00 | 78 | 1015.5 |
| 20260508064511 | 60 | 53 | 3.5 | 5.2 | 0.00 | 0.00 | 0.00 | 79 | 1015.3 |
| 20260508063007 | 60 | 15 | 1.7 | 6.1 | 0.00 | 0.00 | 0.00 | 78 | 1016.0 |
| 20260508061512 | 60 | 3 | 1.7 | 4.3 | 0.00 | 0.00 | 0.00 | 78 | 1016.3 |
| 20260508060005 | 60 | 64 | 2.6 | 5.2 | 0.00 | 0.00 | 0.00 | 78 | 1016.1 |
| 20260508054504 | 60 | 58 | 2.6 | 5.2 | 0.00 | 0.00 | 0.00 | 77 | 1015.8 |
| 20260508053003 | 60 | 60 | 2.6 | 5.2 | 0.00 | 0.00 | 0.00 | 77 | 1016.4 |
| 20260508051601 | 60 | 349 | 2.6 | 4.3 | 0.00 | 0.00 | 0.00 | 78 | 1016.2 |
| 20260508050059 | 60 | 28 | 2.6 | 7.0 | 0.00 | 0.00 | 0.00 | 78 | 1015.9 |
| 20260508044607 | 60 | 352 | 2.6 | 8.7 | 0.00 | 0.00 | 0.00 | 77 | 1016.2 |
| 20260508043111 | 59 | 323 | 1.7 | 4.3 | 0.00 | 0.00 | 0.00 | 78 | 1016.0 |
| 20260508041556 | 60 | 53 | 3.5 | 5.2 | 0.00 | 0.00 | 0.00 | 77 | 1015.7 |
| 20260508040100 | 60 | 30 | 0.9 | 3.5 | 0.00 | 0.00 | 0.00 | 76 | 1016.2 |